DELTA 1 DEB, 10261

Orbit data source: Space-Track

DELTA 1 DEB, 10261 is space debris in LEO originally from a launch on Thu, 14 Jul 1977 UTC launched from the Air Force Eastern Test Range (AFETR). Debris objects in space refer to the collection of defunct objects orbiting the Earth. Examples of debris include non-operational satellites, rocket bodies, and fragments generated from explosions, collisions, or faulty payload assembly.

Not visible in the next 10 days
Identifier
10261, 1977-065CN
Orbit
LEO
Country
Flag of USUS
Related business
Manufacturer
Unknown
Mission
Spacecraft
Bus & Motor
Unknown
Mass
Unknown
Launch date (UTC)
1977-07-14 (48 years ago)
Launch vehicle
Unknown
Launch site
Air Force Eastern Test Range (AFETR)
Object type
Payload
Rocket body
Debris
Shape & HBR
Unknown shape, 0.1 m
Radar Cross Section
Small (<0.1 m²)

Expand to show TLE details & history
Last TLE update: 17 hours ago

TLE from 17 hours ago
0 DELTA 1 DEB
1 10261U 77065CN  25350.32148409  .00084385  00000-0  16040-2 0  9992
2 10261  28.9930  96.4359 0081546 299.5099  59.7398 15.43181141464268
Epoch: 2025-12-16T07:42Z
TLE epoch observation values (Epoch: 2025-12-16T07:42:56.225Z)
Latitude
-0.00002°
Longitude
-104.50578°
Altitude
407.364 km
Speed
7.685 km/s
True Right ascension
06h 25m 44s
True Declination
0° 00' 00"
Sunlit
Object was in full shadow at epoch
Visualization orbit readout
Latitude
Unknown
Longitude
Unknown
Altitude
Unknown
Speed
Unknown
Apparent Right ascension
Unknown
Apparent Declination
Unknown
Sunlit
N/A
Visualization observer readout
Local Sidereal Time
23:01:32
Azimuth
Unknown
Elevation
Unknown
Doppler factor
Unknown
Orbital elements
Apogee altitude
496.526 km
Perigee altitude
385.313 km
Semi-major axis
6,819.056 km
Eccentricity
0.00815
Inclination
28.993°
RAAN
96.4359°
Arg. of periapsis
299.5099°
True anomaly
60.55107°
Mean anomaly
59.7398°
Eccentric anomaly
60.14502°
Mean motion
3.8544 °/min
Orbital period
93.4 mins
BSTAR
0.001604
Loading maneuver chart data...
Computing Atmospheric mass density...
Loading historical data...
Loading historical data...
Loading historical data...
Loading historical data...
Loading historical data...
Loading historical data...
Loading historical data...

Documentation

Showing up to 5 results
|